Leuven Template:n sääsivut:

Template documentation
and downloads

And another site



Normaali sää.    Ei varoituksia

Select another period ( hide this area )

Yksiköt Aika Custom range Directly to
Metriset Englantilaiset Molemmat
Päivittäin Viikoittain Kuukausittain Vuosittain
use both date-selectors for a custom range
previous Päivä
With this date

WeatherUnderground graphs for this period ( click here )


Päivittäin yhteenveto Maanantai 18 Helmikuu 2019
Aika Temp. ( °C ) Dew pt. ( °C ) Tuuli ( km/h ) Alkaa Puuska ( km/h ) Ilmanpaine ( hPa ) Humid.( % ) Rainrate ( cm ) Aurinkoenergia ( W/m2 )
Ylin1,4 0,0 24,1 Etelälounas ( 398/1654 ) 12,6 1022,5 93 - 146
Keskiarvo-3,7 -6,1 6,4 Tyyntä #110/257 2,5 1018,0 84 - 68 #111/257
Alin-9,2 -10,2 -   0,0 1007,0 76 -  
Päivittäin Tabular details for Maanantai 18 Helmikuu 2019
Aika Temp. ( °C ) Dew pt. ( °C ) Tuuli ( km/h ) Alkaa Puuska ( km/h ) Ilmanpaine ( hPa ) Humid.( % ) Rainrate ( cm ) Aurinkoenergia ( W/m2 )
00:04 -5,3 -8,8   Tyyntä   1021,1 76 - -
00:08 -5,4 -8,8   Tyyntä   1021,2 77 - -
00:14 -5,7 -8,9   Tyyntä   1021,2 78 - -
00:18 -5,8 -8,9   Tyyntä   1021,2 79 - -
00:23 -6,1 -8,9   Tyyntä   1021,3 80 - -
00:29 -6,3 -9,2   Tyyntä   1021,4 80 - -
00:33 -6,4 -9,1   Tyyntä   1021,4 81 - -
00:39 -6,5 -9,1   Tyyntä   1021,3 82 - -
00:43 -6,5 -9,1   Tyyntä   1021,3 82 - -
00:48 -6,6 -8,9   Tyyntä   1021,4 83 - -
00:54 -6,6 -9,0   Tyyntä   1021,4 83 - -
00:58 -6,7 -9,1   Tyyntä   1021,4 83 - -
01:04 -6,7 -9,0   Tyyntä   1021,5 84 - -
01:09 -6,8 -9,1   Tyyntä   1021,6 84 - -
01:13 -6,8 -9,1   Tyyntä   1021,7 84 - -
01:19 -6,7 -8,8   Tyyntä   1021,7 85 - -
01:24 -6,7 -8,8   Tyyntä   1021,7 85 - -
01:29 -6,7 -8,8   Tyyntä   1021,6 85 - -
01:34 -6,6 -8,7   Tyyntä   1021,7 85 - -
01:38 -6,6 -8,7   Tyyntä   1021,8 85 - -
01:44 -6,6 -8,7   Tyyntä   1021,8 85 - -
01:49 -6,6 -8,9   Tyyntä   1021,7 84 - -
01:53 -6,7 -8,9   Tyyntä   1021,6 84 - -
01:58 -6,6 -8,7   Tyyntä   1021,7 85 - -
02:03 -6,7 -8,8   Tyyntä   1021,8 85 - -
02:08 -6,6 -8,6   Tyyntä   1021,7 86 - -
02:13 -6,5 -8,4   Tyyntä   1021,7 86 - -
02:19 -6,6 -8,5   Tyyntä   1021,8 86 - -
02:23 -6,6 -8,5   Tyyntä   1021,8 86 - -
02:28 -6,6 -8,6   Tyyntä   1021,7 86 - -
02:33 -6,6 -8,5   Tyyntä   1021,8 86 - -
02:38 -6,6 -8,5   Tyyntä   1021,8 86 - -
02:44 -6,6 -8,5   Tyyntä   1021,8 86 - -
02:48 -6,6 -8,6   Tyyntä   1021,8 86 - -
02:53 -6,7 -8,6   Tyyntä   1021,8 86 - -
02:59 -6,7 -8,7   Tyyntä   1021,9 86 - -
03:03 -6,8 -8,7   Tyyntä   1021,8 86 - -
03:09 -6,9 -8,8   Tyyntä   1021,8 86 - -
03:14 -6,9 -8,7   Tyyntä   1021,7 87 - -
03:18 -6,9 -8,7   Tyyntä   1021,7 87 - -
03:24 -7,0 -8,8   Tyyntä   1021,9 87 - -
03:29 -7,1 -8,9   Tyyntä   1021,8 87 - -
03:33 -7,2 -9,0   Tyyntä   1021,8 87 - -
03:39 -7,3 -9,1   Tyyntä   1021,9 87 - -
03:43 -7,4 -9,2   Tyyntä   1021,8 87 - -
03:49 -7,6 -9,2   Tyyntä   1021,8 88 - -
03:54 -7,6 -9,3   Tyyntä   1021,8 88 - -
03:58 -7,7 -9,3   Tyyntä   1021,9 88 - -
04:04 -7,7 -9,2   Tyyntä   1021,9 89 - -
04:09 -7,8 -9,3   Tyyntä   1022,1 89 - -
04:13 -7,8 -9,3   Tyyntä   1022,1 89 - -
04:18 -7,9 -9,4   Tyyntä   1022,1 89 - -
04:23 -8,0 -9,5   Tyyntä   1022,1 89 - -
04:28 -8,1 -9,6   Tyyntä   1022,2 89 - -
04:33 -8,3 -9,8   Tyyntä   1022,1 89 - -
04:39 -8,3 -9,7   Tyyntä   1022,1 90 - -
04:43 -8,4 -9,7   Tyyntä   1022,2 90 - -
04:48 -8,5 -9,8   Tyyntä   1022,3 90 - -
04:53 -8,6 -9,9   Tyyntä   1022,1 90 - -
04:58 -8,6 -9,9   Tyyntä   1022,0 90 - -
05:04 -8,6 -9,8   Tyyntä   1022,0 91 - -
05:08 -8,7 -9,9   Tyyntä   1022,0 91 - -
05:13 -8,7 -9,9   Tyyntä   1022,0 91 - -
05:19 -8,6 -9,8   Tyyntä   1022,0 91 - -
05:23 -8,6 -9,8   Tyyntä   1022,1 91 - -
05:29 -8,6 -9,8   Tyyntä   1022,1 91 - -
05:34 -8,6 -9,8   Tyyntä   1022,2 91 - -
05:38 -8,6 -9,8   Tyyntä   1022,3 91 - -
05:44 -8,6 -9,8   Tyyntä   1022,3 91 - -
05:48 -8,6 -9,8   Tyyntä   1022,4 91 - -
05:54 -8,7 -9,9   Tyyntä   1022,4 91 - -
05:59 -8,8 -10,0   Tyyntä   1022,4 91 - -
06:03 -8,9 -10,1   Tyyntä   1022,2 91 - -
06:09 -9,0 -10,2   Tyyntä   1022,2 91 - -
06:13 -8,9 -10,0   Tyyntä   1022,1 92 - -
06:19 -8,9 -9,9   Tyyntä   1022,1 92 - -
06:24 -8,9 -10,0   Tyyntä   1022,1 92 - -
06:28 -8,9 -10,0   Tyyntä   1022,1 92 - -
06:33 -9,0 -10,1   Tyyntä   1022,2 92 - -
06:38 -9,0 -10,1   Tyyntä   1022,3 92 - -
06:43 -9,0 -10,1   Tyyntä   1022,3 92 - -
06:48 -9,0 -10,1   Tyyntä   1022,3 92 - -
06:53 -9,1 -10,1   Tyyntä   1022,3 92 - -
06:58 -9,0 -10,1   Tyyntä   1022,2 92 - -
07:03 -9,0 -10,1   Tyyntä   1022,2 92 - -
07:09 -9,1 -10,1   Tyyntä   1022,2 92 - -
07:13 -9,1 -10,2   Tyyntä   1022,2 92 - -
07:19 -9,1 -10,2   Tyyntä   1022,1 92 - -
07:23 -9,1 -10,2   Tyyntä   1022,1 92 - -
07:28 -9,2 -10,2   Tyyntä   1022,0 92 - -
07:34 -9,2 -10,2   Tyyntä   1021,8 92 - 5
07:38 -9,1 -10,2   Tyyntä   1021,8 92 - 7
07:43 -8,9 -9,9   Tyyntä   1021,8 93 - 5
07:49 -8,8 -9,7   Tyyntä   1021,8 93 - 7
07:53 -8,6 -9,5   Tyyntä   1022,0 93 - 7
07:59 -8,6 -9,5   Tyyntä   1022,1 93 - 9
08:03 -8,7 -9,7   Tyyntä   1022,0 92 - 9
08:09 -8,7 -9,8   Tyyntä   1022,0 92 - 9
08:14 -8,7 -9,7   Tyyntä   1022,0 92 - 11
08:18 -8,4 -9,5   Tyyntä   1022,0 92 - 11
08:24 -8,2 -9,1 5,1 Pohjoinen 0,6 1022,1 93 - 14
08:29 -7,7 -8,7   Tyyntä   1022,2 93 - 14
08:34 -7,4 -8,4   Tyyntä   1022,2 93 - 16
08:39 -7,2 -8,3   Tyyntä   1022,3 92 - 23
08:44 -6,9 -8,0   Tyyntä   1022,5 92 - 35
08:48 -6,8 -7,8   Tyyntä   1022,4 92 - 42
08:53 -6,4 -7,8   Tyyntä   1022,4 90 - 33
08:58 -6,2 -7,7   Tyyntä   1022,4 89 - 26
09:03 -5,9 -7,7 5,6 Pohjoinen 1,8 1022,3 87 - 25
09:09 -5,6 -7,7 7,4 Luode 1,4 1022,2 85 - 35
09:13 -5,3 -7,8 7,4 Etelä 0,8 1022,2 83 - 40
09:18 -5,1 -7,7   Tyyntä   1022,0 82 - 44
09:24 -5,0 -7,8 3,7 Eteläkaakko 0,6 1021,9 81 - 42
09:28 -4,9 -7,7 9,3 Etelälounas 1,0 1021,9 81 - 56
09:34 -4,8 -7,8 1,9 Eteläkaakko 0,2 1021,8 80 - 69
09:38 -4,8 -7,8 9,3 Etelälounas 0,6 1021,6 80 - 77
09:43 -4,8 -7,7 8,4 Etelälounas 2,6 1021,5 80 - 53
09:49 -4,8 -7,6 5,6 Etelä 1,0 1021,6 81 - 56
09:53 -4,7 -7,5 7,4 Eteläkaakko 1,9 1021,6 81 - 60
09:58 -4,7 -7,6 5,1 Lounas 2,7 1021,6 80 - 97
10:03 -4,6 -7,5 5,6 Etelälounas 0,8 1021,5 80 - 116
10:08 -4,4 -7,3 7,4 Lounas 0,8 1021,4 80 - 128
10:14 -4,2 -7,2 3,4 Länsilounas 0,6 1021,3 80 - 121
10:18 -4,1 -7,1 8,4 Etelä 1,1 1021,2 80 - 116
10:24 -4,0 -6,9 1,6 Eteläkaakko   1021,3 80 - 97
10:29 -3,8 -6,8 7,4 Eteläkaakko 1,8 1021,3 80 - 74
10:33 -3,8 -6,7 5,6 Etelälounas 0,2 1021,1 80 - 69
10:39 -3,7 -6,4   Tyyntä   1021,0 81 - 77
10:44 -3,6 -6,6   Tyyntä   1020,9 80 - 88
10:49 -3,6 -6,5 3,7 Etelä 1,3 1020,7 80 - 90
10:54 -3,4 -6,4 3,7 Etelä 0,3 1020,6 80 - 98
10:59 -3,3 -6,1 10,1 Länsilounas 1,9 1020,4 81 - 102
11:04 -3,1 -5,9 3,7 Etelälounas 0,6 1020,3 81 - 102
11:08 -3,0 -5,8 11,1 Etelä 2,9 1020,2 81 - 104
11:13 -2,8 -5,7 9,3 Länsilounas 4,0 1020,1 81 - 104
11:18 -2,7 -5,6 13,5 Etelälounas 5,6 1019,9 81 - 98
11:24 -2,6 -5,4 10,1 Pohjoisluode 4,2 1019,9 81 - 98
11:28 -2,5 -5,2 11,9 Etelälounas 5,0 1019,7 82 - 116
11:33 -2,4 -5,2 13,0 Etelä 1,0 1019,5 81 - 116
11:38 -2,3 -5,1 10,1 Koillinen 2,6 1019,4 81 - 130
11:43 -2,2 -5,0 10,1 Länsiluode 3,1 1019,3 81 - 132
11:48 -2,1 -4,9 13,0 Etelälounas   1019,3 81 - 114
11:53 -1,9 -4,8 5,6 Etelälounas 1,1 1019,2 81 - 146
11:58 -1,8 -4,7 13,5 Eteläkaakko 5,6 1019,1 81 - 139
12:04 -1,7 -4,6 11,9 Etelä 5,6 1018,8 81 - 128
12:08 -1,6 -4,4 9,3 Etelälounas 1,1 1018,6 81 - 116
12:14 -1,6 -4,6 13,5 Etelälounas 1,6 1018,6 80 - 102
12:18 -1,5 -4,3 3,7 Etelälounas 0,2 1018,6 81 - 95
12:23 -1,4 -4,3 9,3 Lounas 6,0 1018,4 81 - 88
12:29 -1,3 -4,3 20,4 Etelälounas 8,7 1018,3 80 - 86
12:33 -1,3 -4,3 9,3 Lounas 0,6 1018,3 80 - 86
12:39 -1,2 -4,2 10,1 Etelä 4,8 1018,2 80 - 83
12:44 -1,1 -4,2 13,5 Lounas 3,9 1018,0 79 - 83
12:48 -1,0 -4,3 16,9 Etelä 9,5 1017,9 78 - 72
12:54 -0,9 -4,3 9,3 Lounas 3,9 1018,0 78 - 79
12:59 -0,8 -4,4 15,3 Länsilounas 8,2 1018,0 77 - 86
13:04 -0,8 -4,3 11,9 Lounas 3,9 1018,0 77 - 88
13:09 -0,7 -4,3 11,9 Etelälounas 7,2 1017,9 77 - 88
13:14 -0,7 -4,2 3,7 Kaakko 1,4 1017,8 77 - 86
13:19 -0,7 -4,2 5,6 Lounas 1,1 1017,8 77 - 91
13:24 -0,6 -4,2 11,1 Länsi 0,6 1017,8 77 - 86
13:28 -0,6 -4,2 1,9 Länsilounas   1017,8 77 - 93
13:33 -0,6 -3,9 7,4 Etelälounas 1,0 1017,7 78 - 88
13:38 -0,6 -4,1 9,3 Lounas 2,4 1017,5 77 - 81
13:43 -0,5 -3,9 6,8 Etelä 1,3 1017,4 78 - 69
13:48 -0,5 -3,9 15,3 Länsi 1,1 1017,1 78 - 79
13:53 -0,6 -4,1 10,1 Etelä 5,5 1016,9 77 - 77
13:58 -0,6 -3,9 11,1 Länsi 4,5 1016,7 78 - 84
14:04 -0,5 -3,9 13,5 Etelä 3,5 1016,6 78 - 107
14:08 -0,4 -4,0 13,5 Etelä 8,8 1016,6 77 - 102
14:14 -0,4 -3,8 9,3 Lounas 2,1 1016,4 78 - 88
14:18 -0,4 -4,0 18,5 Länsilounas 10,0 1016,3 77 - 95
14:23 -0,4 -3,8 11,9 Länsi 3,4 1016,0 78 - 81
14:29 -0,4 -3,8 15,3 Etelälounas 8,2 1015,8 78 - 63
14:33 -0,4 -3,8 13,5 Etelä 8,0 1015,7 78 - 60
14:38 -0,4 -3,8 13,5 Etelä 7,2 1015,6 78 - 69
14:44 -0,4 -3,8 9,3 Länsilounas   1015,5 78 - 84
14:48 -0,3 -3,7 9,3 Etelälounas 4,8 1015,5 78 - 76
14:54 -0,3 -3,7 15,3 Lounas 6,6 1015,5 78 - 83
14:59 -0,2 -3,6 13,5 Länsiluode 1,3 1015,5 78 - 98
15:03 -0,2 -3,6 10,1 Länsilounas 4,7 1015,4 78 - 118
15:08 -0,1 -3,4 13,5 Itä 6,0 1015,4 78 - 104
15:13 -0,1 -3,6 9,3 Länsi 1,9 1015,1 77 - 90
15:18 -0,1 -3,6 15,3 Etelälounas 9,5 1015,2 77 - 72
15:24 -0,1 -3,4 13,5 Lounas 1,9 1015,1 78 - 67
15:28 -0,1 -3,5 8,4 Länsi 4,7 1015,0 78 - 58
15:33 -0,1 -3,4 11,9 Etelä 3,1 1014,9 78 - 53
15:38 -0,1 -3,4 15,3 Lounas 2,1 1014,8 78 - 54
15:43 0,0 -3,4 9,3 Lounas 1,3 1014,7 78 - 47
15:49 0,0 -3,4 10,1 Lounas 6,6 1014,6 78 - 44
15:53 0,1 -3,3 7,4 Lounas 4,0 1014,5 78 - 40
15:58 0,1 -3,3 11,9 Etelälounas 6,0 1014,4 78 - 37
16:03 0,1 -3,3 13,0 Luode 5,5 1014,3 78 - 33
16:08 0,1 -3,3 14,8 Länsilounas 9,7 1014,2 78 - 28
16:14 0,2 -3,2 15,3 Etelä 11,4 1014,1 78 - 28
16:18 0,2 -3,2 15,3 Länsilounas 6,0 1013,9 78 - 28
16:24 0,2 -3,2 9,3 Länsi 1,8 1013,9 78 - 23
16:29 0,2 -3,2 18,5 Etelä 12,6 1013,7 78 - 12
16:33 0,2 -3,1 15,3 Etelälounas 9,8 1013,6 79 - 11
16:39 0,1 -3,1 13,5 Länsilounas 7,1 1013,7 79 - 7
16:44 0,1 -3,1 11,1 Länsilounas 7,2 1013,6 79 - 5
16:49 0,1 -3,1 24,1 Etelälounas 10,8 1013,6 79 - -
16:54 0,1 -3,1 10,1 Etelä 2,9 1013,5 79 - -
16:58 0,1 -3,1 13,5 Länsi 6,9 1013,4 79 - -
17:04 0,1 -2,9 13,5 Etelä 7,2 1013,4 80 - -
17:09 0,2 -2,9 20,4 Etelälounas 6,9 1013,3 80 - -
17:13 0,2 -2,9 16,9 Lounas 6,8 1013,2 80 - -
17:18 0,1 -2,9 7,4 Länsilounas 1,3 1013,1 80 - -
17:24 0,1 -2,8 15,3 Lounas 4,2 1013,0 81 - -
17:28 0,1 -2,8 10,1 Lounas 3,9 1012,9 81 - -
17:33 0,2 -2,7 13,5 Länsiluode 8,8 1012,8 81 - -
17:38 0,2 -2,7 9,3 Etelälounas 7,4 1012,6 81 - -
17:43 0,2 -2,7 8,4 Lounas 5,0 1012,3 81 - -
17:48 0,2 -2,7 13,0 Länsiluode 5,3 1012,3 81 - -
17:53 0,2 -2,7 8,4 Lounas 2,3 1012,1 81 - -
17:58 0,3 -2,6 15,3 Etelä 6,6 1011,9 81 - -
18:04 0,3 -2,6 8,4 Länsi 3,9 1011,6 81 - -
18:08 0,3 -2,6 10,1 Länsilounas 2,7 1011,6 81 - -
18:14 0,4 -2,5 9,3 Länsi 4,2 1011,5 81 - -
18:18 0,5 -2,4 9,3 Etelälounas 5,6 1011,4 81 - -
18:23 0,6 -2,3 14,8 Etelälounas 6,1 1011,3 81 - -
18:29 0,7 -2,2 15,3 Etelä 9,3 1011,2 81 - -
18:33 0,8 -2,3 18,5 Etelälounas 3,9 1011,1 80 - -
18:38 0,8 -2,1 16,9 Länsilounas 9,2 1010,9 81 - -
18:44 0,9 -2,2 11,9 Etelälounas 5,1 1010,9 80 - -
18:48 0,9 -2,1 16,9 Länsilounas 8,2 1010,7 80 - -
18:54 1,0 -2,1 9,3 Länsi 2,3 1010,6 80 - -
18:59 1,0 -2,1 10,1 Länsi 5,8 1010,4 80 - -
19:04 1,1 -2,0 11,9 Etelä 3,7 1010,3 80 - -
19:09 1,1 -1,9 9,3 Etelälounas 3,2 1010,2 80 - -
19:13 1,1 -1,9 14,8 Länsi 9,2 1010,1 80 - -
19:19 1,2 -1,7 7,4 Etelälounas 2,1 1010,0 81 - -
19:24 1,2 -1,7 14,8 Länsiluode 8,0 1009,8 81 - -
19:29 1,2 -1,7 8,4 Lounas 2,4 1009,7 81 - -
19:33 1,2 -1,7 13,5 Etelälounas 5,3 1009,8 81 - -
19:38 1,2 -1,7 15,3 Länsilounas 5,6 1009,6 81 - -
19:43 1,2 -1,7 9,3 Länsiluode 4,5 1009,5 81 - -
19:48 1,2 -1,7 11,1 Länsi 6,0 1009,3 81 - -
19:54 1,3 -1,4 13,5 Etelälounas 9,0 1009,1 82 - -
19:58 1,3 -1,4 13,5 Luode 4,7 1009,0 82 - -
20:03 1,3 -1,2 13,0 Etelälounas 3,7 1008,9 83 - -
20:08 1,3 -1,2 11,9 Länsiluode 6,6 1008,9 83 - -
20:13 1,4 -1,0 13,5 Lounas 4,7 1008,7 84 - -
20:19 1,4 -0,8 15,3 Länsiluode 7,4 1008,7 85 - -
20:23 1,4 -0,7 16,7 Länsiluode 6,0 1008,6 86 - -
20:28 1,4 -0,6 11,9 Länsiluode 7,1 1008,5 87 - -
20:34 1,3 -0,6 13,5 Länsiluode 8,7 1008,3 87 - -
20:38 1,3 -0,4 13,5 Lounas 6,1 1008,1 88 - -
20:44 1,3 -0,3 9,3 Luode 4,5 1008,0 89 - -
20:49 1,3 -0,3 13,5 Länsiluode 5,6 1008,0 89 - -
20:53 1,3 -0,2 18,5 Länsi 6,8 1007,9 90 - -
20:59 1,2 -0,2 11,9 Länsi 4,0 1007,6 90 - -
21:03 1,2 -0,2 13,5 Etelälounas 5,1 1007,4 90 - -
21:09 1,2 -0,1 13,0 Lounas 1,6 1007,3 91 - -
21:14 1,3 -0,1 18,5 Länsilounas 10,5 1007,2 91 - -
21:18 1,3 -0,1 15,3 Etelä 6,6 1007,2 91 - -
21:24 1,3 0,0 13,5 Luode 7,2 1007,0 91 - -
Päivittäin yhteenveto Maanantai 18 Helmikuu 2019
Aika Temp. ( °C ) Dew pt. ( °C ) Tuuli ( km/h ) Alkaa Puuska ( km/h ) Ilmanpaine ( hPa ) Humid.( % ) Rainrate ( cm ) Aurinkoenergia ( W/m2 )
Ylin1,4 0,0 24,1 Etelälounas ( 398/1654 ) 12,6 1022,5 93 - 146
Keskiarvo-3,7 -6,1 6,4 Tyyntä #110/257 2,5 1018,0 84 - 68 #111/257
Alin-9,2 -10,2 -   0,0 1007,0 76 -  
Päivittäin Tabular details for Maanantai 18 Helmikuu 2019
Aika Temp. ( °C ) Dew pt. ( °C ) Tuuli ( km/h ) Alkaa Puuska ( km/h ) Ilmanpaine ( hPa ) Humid.( % ) Rainrate ( cm ) Aurinkoenergia ( W/m2 )
00:04 -5,3 -8,8   Tyyntä   1021,1 76 - -
00:08 -5,4 -8,8   Tyyntä   1021,2 77 - -
00:14 -5,7 -8,9   Tyyntä   1021,2 78 - -
00:18 -5,8 -8,9   Tyyntä   1021,2 79 - -
00:23 -6,1 -8,9   Tyyntä   1021,3 80 - -
00:29 -6,3 -9,2   Tyyntä   1021,4 80 - -
00:33 -6,4 -9,1   Tyyntä   1021,4 81 - -
00:39 -6,5 -9,1   Tyyntä   1021,3 82 - -
00:43 -6,5 -9,1   Tyyntä   1021,3 82 - -
00:48 -6,6 -8,9   Tyyntä   1021,4 83 - -
00:54 -6,6 -9,0   Tyyntä   1021,4 83 - -
00:58 -6,7 -9,1   Tyyntä   1021,4 83 - -
01:04 -6,7 -9,0   Tyyntä   1021,5 84 - -
01:09 -6,8 -9,1   Tyyntä   1021,6 84 - -
01:13 -6,8 -9,1   Tyyntä   1021,7 84 - -
01:19 -6,7 -8,8   Tyyntä   1021,7 85 - -
01:24 -6,7 -8,8   Tyyntä   1021,7 85 - -
01:29 -6,7 -8,8   Tyyntä   1021,6 85 - -
01:34 -6,6 -8,7   Tyyntä   1021,7 85 - -
01:38 -6,6 -8,7   Tyyntä   1021,8 85 - -
01:44 -6,6 -8,7   Tyyntä   1021,8 85 - -
01:49 -6,6 -8,9   Tyyntä   1021,7 84 - -
01:53 -6,7 -8,9   Tyyntä   1021,6 84 - -
01:58 -6,6 -8,7   Tyyntä   1021,7 85 - -
02:03 -6,7 -8,8   Tyyntä   1021,8 85 - -
02:08 -6,6 -8,6   Tyyntä   1021,7 86 - -
02:13 -6,5 -8,4   Tyyntä   1021,7 86 - -
02:19 -6,6 -8,5   Tyyntä   1021,8 86 - -
02:23 -6,6 -8,5   Tyyntä   1021,8 86 - -
02:28 -6,6 -8,6   Tyyntä   1021,7 86 - -
02:33 -6,6 -8,5   Tyyntä   1021,8 86 - -
02:38 -6,6 -8,5   Tyyntä   1021,8 86 - -
02:44 -6,6 -8,5   Tyyntä   1021,8 86 - -
02:48 -6,6 -8,6   Tyyntä   1021,8 86 - -
02:53 -6,7 -8,6   Tyyntä   1021,8 86 - -
02:59 -6,7 -8,7   Tyyntä   1021,9 86 - -
03:03 -6,8 -8,7   Tyyntä   1021,8 86 - -
03:09 -6,9 -8,8   Tyyntä   1021,8 86 - -
03:14 -6,9 -8,7   Tyyntä   1021,7 87 - -
03:18 -6,9 -8,7   Tyyntä   1021,7 87 - -
03:24 -7,0 -8,8   Tyyntä   1021,9 87 - -
03:29 -7,1 -8,9   Tyyntä   1021,8 87 - -
03:33 -7,2 -9,0   Tyyntä   1021,8 87 - -
03:39 -7,3 -9,1   Tyyntä   1021,9 87 - -
03:43 -7,4 -9,2   Tyyntä   1021,8 87 - -
03:49 -7,6 -9,2   Tyyntä   1021,8 88 - -
03:54 -7,6 -9,3   Tyyntä   1021,8 88 - -
03:58 -7,7 -9,3   Tyyntä   1021,9 88 - -
04:04 -7,7 -9,2   Tyyntä   1021,9 89 - -
04:09 -7,8 -9,3   Tyyntä   1022,1 89 - -
04:13 -7,8 -9,3   Tyyntä   1022,1 89 - -
04:18 -7,9 -9,4   Tyyntä   1022,1 89 - -
04:23 -8,0 -9,5   Tyyntä   1022,1 89 - -
04:28 -8,1 -9,6   Tyyntä   1022,2 89 - -
04:33 -8,3 -9,8   Tyyntä   1022,1 89 - -
04:39 -8,3 -9,7   Tyyntä   1022,1 90 - -
04:43 -8,4 -9,7   Tyyntä   1022,2 90 - -
04:48 -8,5 -9,8   Tyyntä   1022,3 90 - -
04:53 -8,6 -9,9   Tyyntä   1022,1 90 - -
04:58 -8,6 -9,9   Tyyntä   1022,0 90 - -
05:04 -8,6 -9,8   Tyyntä   1022,0 91 - -
05:08 -8,7 -9,9   Tyyntä   1022,0 91 - -
05:13 -8,7 -9,9   Tyyntä   1022,0 91 - -
05:19 -8,6 -9,8   Tyyntä   1022,0 91 - -
05:23 -8,6 -9,8   Tyyntä   1022,1 91 - -
05:29 -8,6 -9,8   Tyyntä   1022,1 91 - -
05:34 -8,6 -9,8   Tyyntä   1022,2 91 - -
05:38 -8,6 -9,8   Tyyntä   1022,3 91 - -
05:44 -8,6 -9,8   Tyyntä   1022,3 91 - -
05:48 -8,6 -9,8   Tyyntä   1022,4 91 - -
05:54 -8,7 -9,9   Tyyntä   1022,4 91 - -
05:59 -8,8 -10,0   Tyyntä   1022,4 91 - -
06:03 -8,9 -10,1   Tyyntä   1022,2 91 - -
06:09 -9,0 -10,2   Tyyntä   1022,2 91 - -
06:13 -8,9 -10,0   Tyyntä   1022,1 92 - -
06:19 -8,9 -9,9   Tyyntä   1022,1 92 - -
06:24 -8,9 -10,0   Tyyntä   1022,1 92 - -
06:28 -8,9 -10,0   Tyyntä   1022,1 92 - -
06:33 -9,0 -10,1   Tyyntä   1022,2 92 - -
06:38 -9,0 -10,1   Tyyntä   1022,3 92 - -
06:43 -9,0 -10,1   Tyyntä   1022,3 92 - -
06:48 -9,0 -10,1   Tyyntä   1022,3 92 - -
06:53 -9,1 -10,1   Tyyntä   1022,3 92 - -
06:58 -9,0 -10,1   Tyyntä   1022,2 92 - -
07:03 -9,0 -10,1   Tyyntä   1022,2 92 - -
07:09 -9,1 -10,1   Tyyntä   1022,2 92 - -
07:13 -9,1 -10,2   Tyyntä   1022,2 92 - -
07:19 -9,1 -10,2   Tyyntä   1022,1 92 - -
07:23 -9,1 -10,2   Tyyntä   1022,1 92 - -
07:28 -9,2 -10,2   Tyyntä   1022,0 92 - -
07:34 -9,2 -10,2   Tyyntä   1021,8 92 - 5
07:38 -9,1 -10,2   Tyyntä   1021,8 92 - 7
07:43 -8,9 -9,9   Tyyntä   1021,8 93 - 5
07:49 -8,8 -9,7   Tyyntä   1021,8 93 - 7
07:53 -8,6 -9,5   Tyyntä   1022,0 93 - 7
07:59 -8,6 -9,5   Tyyntä   1022,1 93 - 9
08:03 -8,7 -9,7   Tyyntä   1022,0 92 - 9
08:09 -8,7 -9,8   Tyyntä   1022,0 92 - 9
08:14 -8,7 -9,7   Tyyntä   1022,0 92 - 11
08:18 -8,4 -9,5   Tyyntä   1022,0 92 - 11
08:24 -8,2 -9,1 5,1 Pohjoinen 0,6 1022,1 93 - 14
08:29 -7,7 -8,7   Tyyntä   1022,2 93 - 14
08:34 -7,4 -8,4   Tyyntä   1022,2 93 - 16
08:39 -7,2 -8,3   Tyyntä   1022,3 92 - 23
08:44 -6,9 -8,0   Tyyntä   1022,5 92 - 35
08:48 -6,8 -7,8   Tyyntä   1022,4 92 - 42
08:53 -6,4 -7,8   Tyyntä   1022,4 90 - 33
08:58 -6,2 -7,7   Tyyntä   1022,4 89 - 26
09:03 -5,9 -7,7 5,6 Pohjoinen 1,8 1022,3 87 - 25
09:09 -5,6 -7,7 7,4 Luode 1,4 1022,2 85 - 35
09:13 -5,3 -7,8 7,4 Etelä 0,8 1022,2 83 - 40
09:18 -5,1 -7,7   Tyyntä   1022,0 82 - 44
09:24 -5,0 -7,8 3,7 Eteläkaakko 0,6 1021,9 81 - 42
09:28 -4,9 -7,7 9,3 Etelälounas 1,0 1021,9 81 - 56
09:34 -4,8 -7,8 1,9 Eteläkaakko 0,2 1021,8 80 - 69
09:38 -4,8 -7,8 9,3 Etelälounas 0,6 1021,6 80 - 77
09:43 -4,8 -7,7 8,4 Etelälounas 2,6 1021,5 80 - 53
09:49 -4,8 -7,6 5,6 Etelä 1,0 1021,6 81 - 56
09:53 -4,7 -7,5 7,4 Eteläkaakko 1,9 1021,6 81 - 60
09:58 -4,7 -7,6 5,1 Lounas 2,7 1021,6 80 - 97
10:03 -4,6 -7,5 5,6 Etelälounas 0,8 1021,5 80 - 116
10:08 -4,4 -7,3 7,4 Lounas 0,8 1021,4 80 - 128
10:14 -4,2 -7,2 3,4 Länsilounas 0,6 1021,3 80 - 121
10:18 -4,1 -7,1 8,4 Etelä 1,1 1021,2 80 - 116
10:24 -4,0 -6,9 1,6 Eteläkaakko   1021,3 80 - 97
10:29 -3,8 -6,8 7,4 Eteläkaakko 1,8 1021,3 80 - 74
10:33 -3,8 -6,7 5,6 Etelälounas 0,2 1021,1 80 - 69
10:39 -3,7 -6,4   Tyyntä   1021,0 81 - 77
10:44 -3,6 -6,6   Tyyntä   1020,9 80 - 88
10:49 -3,6 -6,5 3,7 Etelä 1,3 1020,7 80 - 90
10:54 -3,4 -6,4 3,7 Etelä 0,3 1020,6 80 - 98
10:59 -3,3 -6,1 10,1 Länsilounas 1,9 1020,4 81 - 102
11:04 -3,1 -5,9 3,7 Etelälounas 0,6 1020,3 81 - 102
11:08 -3,0 -5,8 11,1 Etelä 2,9 1020,2 81 - 104
11:13 -2,8 -5,7 9,3 Länsilounas 4,0 1020,1 81 - 104
11:18 -2,7 -5,6 13,5 Etelälounas 5,6 1019,9 81 - 98
11:24 -2,6 -5,4 10,1 Pohjoisluode 4,2 1019,9 81 - 98
11:28 -2,5 -5,2 11,9 Etelälounas 5,0 1019,7 82 - 116
11:33 -2,4 -5,2 13,0 Etelä 1,0 1019,5 81 - 116
11:38 -2,3 -5,1 10,1 Koillinen 2,6 1019,4 81 - 130
11:43 -2,2 -5,0 10,1 Länsiluode 3,1 1019,3 81 - 132
11:48 -2,1 -4,9 13,0 Etelälounas   1019,3 81 - 114
11:53 -1,9 -4,8 5,6 Etelälounas 1,1 1019,2 81 - 146
11:58 -1,8 -4,7 13,5 Eteläkaakko 5,6 1019,1 81 - 139
12:04 -1,7 -4,6 11,9 Etelä 5,6 1018,8 81 - 128
12:08 -1,6 -4,4 9,3 Etelälounas 1,1 1018,6 81 - 116
12:14 -1,6 -4,6 13,5 Etelälounas 1,6 1018,6 80 - 102
12:18 -1,5 -4,3 3,7 Etelälounas 0,2 1018,6 81 - 95
12:23 -1,4 -4,3 9,3 Lounas 6,0 1018,4 81 - 88
12:29 -1,3 -4,3 20,4 Etelälounas 8,7 1018,3 80 - 86
12:33 -1,3 -4,3 9,3 Lounas 0,6 1018,3 80 - 86
12:39 -1,2 -4,2 10,1 Etelä 4,8 1018,2 80 - 83
12:44 -1,1 -4,2 13,5 Lounas 3,9 1018,0 79 - 83
12:48 -1,0 -4,3 16,9 Etelä 9,5 1017,9 78 - 72
12:54 -0,9 -4,3 9,3 Lounas 3,9 1018,0 78 - 79
12:59 -0,8 -4,4 15,3 Länsilounas 8,2 1018,0 77 - 86
13:04 -0,8 -4,3 11,9 Lounas 3,9 1018,0 77 - 88
13:09 -0,7 -4,3 11,9 Etelälounas 7,2 1017,9 77 - 88
13:14 -0,7 -4,2 3,7 Kaakko 1,4 1017,8 77 - 86
13:19 -0,7 -4,2 5,6 Lounas 1,1 1017,8 77 - 91
13:24 -0,6 -4,2 11,1 Länsi 0,6 1017,8 77 - 86
13:28 -0,6 -4,2 1,9 Länsilounas   1017,8 77 - 93
13:33 -0,6 -3,9 7,4 Etelälounas 1,0 1017,7 78 - 88
13:38 -0,6 -4,1 9,3 Lounas 2,4 1017,5 77 - 81
13:43 -0,5 -3,9 6,8 Etelä 1,3 1017,4 78 - 69
13:48 -0,5 -3,9 15,3 Länsi 1,1 1017,1 78 - 79
13:53 -0,6 -4,1 10,1 Etelä 5,5 1016,9 77 - 77
13:58 -0,6 -3,9 11,1 Länsi 4,5 1016,7 78 - 84
14:04 -0,5 -3,9 13,5 Etelä 3,5 1016,6 78 - 107
14:08 -0,4 -4,0 13,5 Etelä 8,8 1016,6 77 - 102
14:14 -0,4 -3,8 9,3 Lounas 2,1 1016,4 78 - 88
14:18 -0,4 -4,0 18,5 Länsilounas 10,0 1016,3 77 - 95
14:23 -0,4 -3,8 11,9 Länsi 3,4 1016,0 78 - 81
14:29 -0,4 -3,8 15,3 Etelälounas 8,2 1015,8 78 - 63
14:33 -0,4 -3,8 13,5 Etelä 8,0 1015,7 78 - 60
14:38 -0,4 -3,8 13,5 Etelä 7,2 1015,6 78 - 69
14:44 -0,4 -3,8 9,3 Länsilounas   1015,5 78 - 84
14:48 -0,3 -3,7 9,3 Etelälounas 4,8 1015,5 78 - 76
14:54 -0,3 -3,7 15,3 Lounas 6,6 1015,5 78 - 83
14:59 -0,2 -3,6 13,5 Länsiluode 1,3 1015,5 78 - 98
15:03 -0,2 -3,6 10,1 Länsilounas 4,7 1015,4 78 - 118
15:08 -0,1 -3,4 13,5 Itä 6,0 1015,4 78 - 104
15:13 -0,1 -3,6 9,3 Länsi 1,9 1015,1 77 - 90
15:18 -0,1 -3,6 15,3 Etelälounas 9,5 1015,2 77 - 72
15:24 -0,1 -3,4 13,5 Lounas 1,9 1015,1 78 - 67
15:28 -0,1 -3,5 8,4 Länsi 4,7 1015,0 78 - 58
15:33 -0,1 -3,4 11,9 Etelä 3,1 1014,9 78 - 53
15:38 -0,1 -3,4 15,3 Lounas 2,1 1014,8 78 - 54
15:43 0,0 -3,4 9,3 Lounas 1,3 1014,7 78 - 47
15:49 0,0 -3,4 10,1 Lounas 6,6 1014,6 78 - 44
15:53 0,1 -3,3 7,4 Lounas 4,0 1014,5 78 - 40
15:58 0,1 -3,3 11,9 Etelälounas 6,0 1014,4 78 - 37
16:03 0,1 -3,3 13,0 Luode 5,5 1014,3 78 - 33
16:08 0,1 -3,3 14,8 Länsilounas 9,7 1014,2 78 - 28
16:14 0,2 -3,2 15,3 Etelä 11,4 1014,1 78 - 28
16:18 0,2 -3,2 15,3 Länsilounas 6,0 1013,9 78 - 28
16:24 0,2 -3,2 9,3 Länsi 1,8 1013,9 78 - 23
16:29 0,2 -3,2 18,5 Etelä 12,6 1013,7 78 - 12
16:33 0,2 -3,1 15,3 Etelälounas 9,8 1013,6 79 - 11
16:39 0,1 -3,1 13,5 Länsilounas 7,1 1013,7 79 - 7
16:44 0,1 -3,1 11,1 Länsilounas 7,2 1013,6 79 - 5
16:49 0,1 -3,1 24,1 Etelälounas 10,8 1013,6 79 - -
16:54 0,1 -3,1 10,1 Etelä 2,9 1013,5 79 - -
16:58 0,1 -3,1 13,5 Länsi 6,9 1013,4 79 - -
17:04 0,1 -2,9 13,5 Etelä 7,2 1013,4 80 - -
17:09 0,2 -2,9 20,4 Etelälounas 6,9 1013,3 80 - -
17:13 0,2 -2,9 16,9 Lounas 6,8 1013,2 80 - -
17:18 0,1 -2,9 7,4 Länsilounas 1,3 1013,1 80 - -
17:24 0,1 -2,8 15,3 Lounas 4,2 1013,0 81 - -
17:28 0,1 -2,8 10,1 Lounas 3,9 1012,9 81 - -
17:33 0,2 -2,7 13,5 Länsiluode 8,8 1012,8 81 - -
17:38 0,2 -2,7 9,3 Etelälounas 7,4 1012,6 81 - -
17:43 0,2 -2,7 8,4 Lounas 5,0 1012,3 81 - -
17:48 0,2 -2,7 13,0 Länsiluode 5,3 1012,3 81 - -
17:53 0,2 -2,7 8,4 Lounas 2,3 1012,1 81 - -
17:58 0,3 -2,6 15,3 Etelä 6,6 1011,9 81 - -
18:04 0,3 -2,6 8,4 Länsi 3,9 1011,6 81 - -
18:08 0,3 -2,6 10,1 Länsilounas 2,7 1011,6 81 - -
18:14 0,4 -2,5 9,3 Länsi 4,2 1011,5 81 - -
18:18 0,5 -2,4 9,3 Etelälounas 5,6 1011,4 81 - -
18:23 0,6 -2,3 14,8 Etelälounas 6,1 1011,3 81 - -
18:29 0,7 -2,2 15,3 Etelä 9,3 1011,2 81 - -
18:33 0,8 -2,3 18,5 Etelälounas 3,9 1011,1 80 - -
18:38 0,8 -2,1 16,9 Länsilounas 9,2 1010,9 81 - -
18:44 0,9 -2,2 11,9 Etelälounas 5,1 1010,9 80 - -
18:48 0,9 -2,1 16,9 Länsilounas 8,2 1010,7 80 - -
18:54 1,0 -2,1 9,3 Länsi 2,3 1010,6 80 - -
18:59 1,0 -2,1 10,1 Länsi 5,8 1010,4 80 - -
19:04 1,1 -2,0 11,9 Etelä 3,7 1010,3 80 - -
19:09 1,1 -1,9 9,3 Etelälounas 3,2 1010,2 80 - -
19:13 1,1 -1,9 14,8 Länsi 9,2 1010,1 80 - -
19:19 1,2 -1,7 7,4 Etelälounas 2,1 1010,0 81 - -
19:24 1,2 -1,7 14,8 Länsiluode 8,0 1009,8 81 - -
19:29 1,2 -1,7 8,4 Lounas 2,4 1009,7 81 - -
19:33 1,2 -1,7 13,5 Etelälounas 5,3 1009,8 81 - -
19:38 1,2 -1,7 15,3 Länsilounas 5,6 1009,6 81 - -
19:43 1,2 -1,7 9,3 Länsiluode 4,5 1009,5 81 - -
19:48 1,2 -1,7 11,1 Länsi 6,0 1009,3 81 - -
19:54 1,3 -1,4 13,5 Etelälounas 9,0 1009,1 82 - -
19:58 1,3 -1,4 13,5 Luode 4,7 1009,0 82 - -
20:03 1,3 -1,2 13,0 Etelälounas 3,7 1008,9 83 - -
20:08 1,3 -1,2 11,9 Länsiluode 6,6 1008,9 83 - -
20:13 1,4 -1,0 13,5 Lounas 4,7 1008,7 84 - -
20:19 1,4 -0,8 15,3 Länsiluode 7,4 1008,7 85 - -
20:23 1,4 -0,7 16,7 Länsiluode 6,0 1008,6 86 - -
20:28 1,4 -0,6 11,9 Länsiluode 7,1 1008,5 87 - -
20:34 1,3 -0,6 13,5 Länsiluode 8,7 1008,3 87 - -
20:38 1,3 -0,4 13,5 Lounas 6,1 1008,1 88 - -
20:44 1,3 -0,3 9,3 Luode 4,5 1008,0 89 - -
20:49 1,3 -0,3 13,5 Länsiluode 5,6 1008,0 89 - -
20:53 1,3 -0,2 18,5 Länsi 6,8 1007,9 90 - -
20:59 1,2 -0,2 11,9 Länsi 4,0 1007,6 90 - -
21:03 1,2 -0,2 13,5 Etelälounas 5,1 1007,4 90 - -
21:09 1,2 -0,1 13,0 Lounas 1,6 1007,3 91 - -
21:14 1,3 -0,1 18,5 Länsilounas 10,5 1007,2 91 - -
21:18 1,3 -0,1 15,3 Etelä 6,6 1007,2 91 - -
21:24 1,3 0,0 13,5 Luode 7,2 1007,0 91 - -

Download your copy of this data-set  here

Our weather-data as stored at Weather Underground. Alkuperäinen skripti Jim McMurry. Sovitettu myös templatelle Leuven-Template.eu